Bloomington, IN

12:01 PM EST on February 27, 2017 (GMT -0500)
Monroe County

Weather History for KBMG - December, 2003

Change the Weather History Date:

Monday, December 29, 2003

  Actual Average Record
Temperature  
Mean Temperature 44 °F 30 °F  
Max Temperature 55 °F 38 °F 59 °F (2006)
Min Temperature 33 °F 21 °F 12 °F (2000)
Degree Days  
Heating Degree Days 21 35  
Month to date heating degree days 946  
Since 1 July heating degree days 2002  
Cooling Degree Days 0 0  
Month to date cooling degree days 0  
Year to date cooling degree days 927  
Moisture  
Dew Point 42 °F    
Average Humidity 93    
Maximum Humidity 100    
Minimum Humidity 47    
Precipitation  
Precipitation 0.48 in 0.12 in 0.48 in (2003)
Month to date precipitation 3.28  
Year to date precipitation 47.29  
Sea Level Pressure  
Sea Level Pressure 29.88 in    
Wind  
Wind Speed 9 mph (SW)    
Max Wind Speed 16 mph    
Max Gust Speed 25 mph    
Visibility 6 miles    
Events Rain    
T = Trace of Precipitation, MM = Missing Value Source: NWS Daily Summary

Daily Weather History Graph

Daily Weather History Graph

Search for Another Location

Airport or City:

Trip Planner

Search our weather history database for the weather conditions in past years. The results will help you decide how hot, cold, wet, or windy it might be!

Date:

Astronomy

Dec. 29, 2003 Rise Set
Actual Time 8:05 AM EST 5:31 PM EST
Civil Twilight 7:35 AM EST 6:01 PM EST
Nautical Twilight 7:01 AM EST 6:35 PM EST
Astronomical Twilight 6:29 AM EST 7:07 PM EST
Moon 12:33 PM EST (12/29) No Moon Set
Length of Visible Light 10h 26m
Length of Day
9h 26m
Waxing Crescent, 43% of the Moon is Illuminated
Dec 29
Waxing Crescent
Dec 30
First Quarter
Jan 7
Full
Jan 14
Last Quarter
Jan 21
New

Hourly Weather History & Observations

Time (EST) Temp. Windchill Dew Point Humidity Pressure Visibility Wind Dir Wind Speed Gust Speed Precip Events Conditions
12:53 AM 55.9 °F - 37.9 °F 51% 29.95 in 10.0 mi SSW 11.5 mph 21.9 mph N/A   Overcast
1:53 AM 55.9 °F - 36.0 °F 47% 29.94 in 10.0 mi South 16.1 mph 23.0 mph N/A   Overcast
2:53 AM 55.0 °F - 37.0 °F 51% 29.94 in 10.0 mi SSW 11.5 mph - 0.00 in   Overcast
3:53 AM 50.0 °F - 43.0 °F 77% 29.96 in 10.0 mi WSW 6.9 mph - 0.01 in   Overcast
4:53 AM 46.9 °F - 44.1 °F 90% 29.94 in 5.0 mi SSE 8.1 mph - 0.03 in Rain Rain
5:53 AM 46.0 °F 43.1 °F 45.0 °F 96% 29.91 in 6.0 mi SE 5.8 mph - 0.07 in Rain Light Rain
6:53 AM 46.0 °F 42.5 °F 45.0 °F 96% 29.90 in 10.0 mi SSE 6.9 mph - 0.02 in   Overcast
7:18 AM 46.4 °F 43.5 °F 44.6 °F 93% 29.91 in 7.0 mi SSE 5.8 mph - 0.00 in Rain Light Rain
7:53 AM 45.0 °F 41.8 °F 45.0 °F 100% 29.91 in 9.0 mi SSE 5.8 mph - 0.01 in Rain Light Rain
8:53 AM 46.0 °F 42.5 °F 46.0 °F 100% 29.91 in 8.0 mi SSE 6.9 mph - 0.00 in   Overcast
9:53 AM 46.0 °F 41.4 °F 46.0 °F 100% 29.91 in 4.0 mi South 9.2 mph - 0.05 in Rain Rain
10:19 AM 46.4 °F 42.4 °F 46.4 °F 100% 29.88 in 2.5 mi SE 8.1 mph - 0.05 in Rain Rain
10:39 AM 46.4 °F 42.4 °F 46.4 °F 100% 29.88 in 3.0 mi SSE 8.1 mph - 0.08 in Rain Light Rain
10:53 AM 46.0 °F 41.9 °F 46.0 °F 100% 29.88 in 2.5 mi South 8.1 mph - 0.10 in Rain Rain
11:00 AM 46.4 °F 42.4 °F 46.4 °F 100% 29.88 in 3.0 mi South 8.1 mph - 0.01 in Rain Light Rain
11:36 AM 46.4 °F 42.4 °F 46.4 °F 100% 29.86 in 4.0 mi SSW 8.1 mph - 0.02 in Rain Light Rain
11:53 AM 46.0 °F 41.9 °F 46.0 °F 100% 29.86 in 2.5 mi SSW 8.1 mph - 0.02 in Rain Light Rain
12:32 PM 46.4 °F 42.4 °F 46.4 °F 100% 29.84 in 3.0 mi SSW 8.1 mph - 0.01 in   Overcast
12:41 PM 46.4 °F 43.5 °F 46.4 °F 100% 29.83 in 2.5 mi SW 5.8 mph - 0.01 in   Overcast
12:53 PM 46.9 °F - 46.9 °F 100% 29.83 in 3.0 mi SW 8.1 mph - 0.01 in   Overcast
1:26 PM 46.4 °F 41.9 °F 46.4 °F 100% 29.82 in 2.0 mi SW 9.2 mph - 0.01 in Rain Light Rain
1:39 PM 46.4 °F 42.4 °F 46.4 °F 100% 29.82 in 3.0 mi SW 8.1 mph - 0.01 in Rain Light Rain
1:53 PM 46.0 °F 41.9 °F 46.0 °F 100% 29.82 in 2.5 mi WSW 8.1 mph - 0.02 in Rain Light Rain
2:03 PM 46.4 °F 42.4 °F 46.4 °F 100% 29.82 in 4.0 mi SW 8.1 mph - 0.01 in Rain Light Rain
2:25 PM 44.6 °F 39.2 °F 44.6 °F 100% 29.82 in 4.0 mi West 10.4 mph - 0.02 in Rain Light Rain
2:36 PM 44.6 °F 39.7 °F 44.6 °F 100% 29.83 in 4.0 mi West 9.2 mph - 0.03 in Rain Light Rain
2:53 PM 44.1 °F 40.8 °F 44.1 °F 100% 29.83 in 4.0 mi West 5.8 mph - 0.05 in Rain Light Rain
3:12 PM 44.6 °F 41.4 °F 44.6 °F 100% 29.83 in 5.0 mi West 5.8 mph - 0.02 in Rain Light Rain
3:53 PM 43.0 °F - 43.0 °F 100% 29.84 in 3.0 mi Calm Calm - 0.05 in Rain Light Rain
3:57 PM 42.8 °F 39.3 °F 42.8 °F 100% 29.84 in 4.0 mi West 5.8 mph - 0.01 in Rain Light Rain
4:12 PM 42.8 °F 38.6 °F 42.8 °F 100% 29.84 in 8.0 mi WNW 6.9 mph - 0.01 in Rain Light Rain
4:19 PM 42.8 °F 38.6 °F 42.8 °F 100% 29.84 in 3.0 mi West 6.9 mph - 0.02 in Rain Light Rain
4:45 PM 42.8 °F 40.1 °F 42.8 °F 100% 29.84 in 4.0 mi West 4.6 mph - 0.02 in Rain Light Rain
4:53 PM 42.1 °F 37.7 °F 42.1 °F 100% 29.85 in 5.0 mi WNW 6.9 mph - 0.02 in Rain Light Rain
5:53 PM 39.9 °F 35.8 °F 39.9 °F 100% 29.88 in 10.0 mi WSW 5.8 mph - 0.02 in Rain Light Rain
6:53 PM 39.9 °F 35.1 °F 39.9 °F 100% 29.89 in 10.0 mi WSW 6.9 mph - 0.00 in   Overcast
7:24 PM 41.0 °F 34.3 °F 41.0 °F 100% 29.87 in 10.0 mi West 11.5 mph - N/A   Overcast
7:31 PM 41.0 °F 34.7 °F 41.0 °F 100% 29.86 in 10.0 mi WNW 10.4 mph - N/A   Overcast
7:39 PM 41.0 °F 35.2 °F 39.2 °F 93% 29.87 in 10.0 mi WNW 9.2 mph - N/A   Overcast
7:53 PM 41.0 °F 34.7 °F 39.0 °F 93% 29.88 in 10.0 mi WNW 10.4 mph - N/A   Overcast
8:53 PM 39.0 °F 32.3 °F 37.0 °F 93% 29.91 in 10.0 mi West 10.4 mph - N/A   Overcast
9:53 PM 37.9 °F 29.2 °F 33.1 °F 83% 29.94 in 10.0 mi West 15.0 mph 20.7 mph N/A   Mostly Cloudy
10:53 PM 35.1 °F 25.5 °F 28.9 °F 78% 29.96 in 10.0 mi West 15.0 mph 24.2 mph N/A   Overcast
11:20 PM 33.8 °F 23.5 °F 24.8 °F 70% 29.96 in 10.0 mi West 16.1 mph 25.3 mph N/A   Overcast
11:53 PM 33.1 °F 23.4 °F 25.0 °F 72% 29.97 in 10.0 mi West 13.8 mph 21.9 mph N/A   Overcast